Weather History for Ramona, CA

Change the Weather History Date:

Saturday, October 19, 2013

  Actual Average Record
Temperature  
Mean Temperature 64 °F 63 °F  
Max Temperature 87 °F 79 °F 95 °F (2003)
Min Temperature 41 °F 47 °F 39 °F (1994)
Degree Days  
Heating Degree Days 1 3  
Month to date heating degree days 65 46  
Since 1 July heating degree days 80 64  
Cooling Degree Days 0 1  
Month to date cooling degree days 9 39  
Year to date cooling degree days 892 832  
Growing Degree Days 14 (Base 50)    
Moisture  
Dew Point 33 °F    
Average Humidity 42    
Maximum Humidity 76    
Minimum Humidity 8    
Precipitation  
Precipitation 0.00 in 0.02 in 2.11 in (2010)
Month to date precipitation 1.10 0.36  
Year to date precipitation 5.69 12.26  
Since 1 July precipitation 1.19 0.93  
Snow  
Snow 0.00 in - - ()
Month to date snowfall 0.0  
Year to date snowfall 0.0  
Since 1 July snowfall 0.0  
Snow Depth 0.00 in    
Sea Level Pressure  
Sea Level Pressure 29.99 in    
Wind  
Wind Speed 5 mph (West)    
Max Wind Speed 15 mph    
Max Gust Speed 32 mph    
Visibility 10 miles    
Events      
T = Trace of Precipitation, MM = Missing Value Source: NWS Daily Summary

Daily Weather History Graph

Daily Weather History Graph

Search for Another Location

Airport:

Trip Planner

Search our weather history database for the weather conditions in past years. The results will help you decide how hot, cold, wet, or windy it might be!

Date:

Astronomy

Oct. 19, 2013 Rise Set
Actual Time 6:55 AM PDT 6:09 PM PDT
Civil Twilight 6:30 AM PDT 6:34 PM PDT
Nautical Twilight 6:01 AM PDT 7:03 PM PDT
Astronomical Twilight 5:32 AM PDT 7:31 PM PDT
Moon 6:44 PM PDT (10/19) 7:34 AM PDT (10/19)
Length of Visible Light 12h 04m
Length of Day
11h 14m
Full, 99% of the Moon is Illuminated
Oct 19
Full
Oct 26
Last Quarter
Nov 3
New
Nov 9
First Quarter
Nov 17
Full

Hourly Weather History & Observations

Time (PDT) Temp. Windchill Dew Point Humidity Pressure Visibility Wind Dir Wind Speed Gust Speed Precip Events Conditions
12:53 AM 46.9 °F - 37.0 °F 68% 29.98 in 10.0 mi Calm Calm - N/A   Clear
1:53 AM 45.0 °F - 37.0 °F 74% 29.99 in 10.0 mi Calm Calm - N/A   Clear
2:53 AM 43.0 °F 41.3 °F 36.0 °F 76% 29.99 in 10.0 mi SE 3.5 mph - N/A   Clear
3:53 AM 43.0 °F - 36.0 °F 76% 29.98 in 10.0 mi Calm Calm - N/A   Clear
4:53 AM 43.0 °F - 36.0 °F 76% 29.99 in 10.0 mi Calm Calm - N/A   Clear
5:53 AM 44.1 °F - 35.1 °F 71% 30.00 in 10.0 mi Calm Calm - N/A   Clear
6:53 AM 42.1 °F - 35.1 °F 76% 30.00 in 10.0 mi Calm Calm - N/A   Clear
7:53 AM 48.0 °F - 37.9 °F 68% 30.01 in 10.0 mi Calm Calm - N/A   Clear
8:53 AM 66.9 °F - 30.9 °F 26% 30.02 in 10.0 mi Calm Calm - N/A   Clear
9:53 AM 78.1 °F - 23.0 °F 13% 30.01 in 10.0 mi Variable 4.6 mph 23.0 mph N/A   Clear
10:53 AM 84.9 °F - 17.1 °F 8% 30.00 in 10.0 mi Variable 4.6 mph 32.2 mph N/A   Clear
11:53 AM 86.0 °F - 27.0 °F 12% 29.99 in 10.0 mi WNW 9.2 mph - N/A   Clear
12:53 PM 86.0 °F - 28.0 °F 12% 29.97 in 10.0 mi West 11.5 mph - N/A   Clear
1:53 PM 87.1 °F - 28.0 °F 12% 29.95 in 10.0 mi West 9.2 mph - N/A   Clear
2:53 PM 84.0 °F - 35.1 °F 17% 29.95 in 10.0 mi West 12.7 mph - N/A   Clear
3:53 PM 81.0 °F - 42.1 °F 25% 29.96 in 10.0 mi West 11.5 mph - N/A   Clear
4:53 PM 79.0 °F - 27.0 °F 15% 29.96 in 10.0 mi WNW 11.5 mph - N/A   Clear
5:53 PM 73.0 °F - 32.0 °F 22% 29.97 in 10.0 mi Calm Calm - N/A   Clear
6:53 PM 64.9 °F - 34.0 °F 32% 29.99 in 10.0 mi Calm Calm - N/A   Clear
7:53 PM 61.0 °F - 37.0 °F 41% 30.00 in 10.0 mi Calm Calm - N/A   Clear
8:53 PM 54.0 °F - 37.9 °F 55% 29.99 in 10.0 mi ESE 3.5 mph - N/A   Clear
9:53 PM 51.1 °F - 36.0 °F 56% 29.99 in 10.0 mi Calm Calm - N/A   Clear
10:53 PM 48.0 °F - 36.0 °F 63% 29.98 in 10.0 mi Calm Calm - N/A   Clear
11:53 PM 48.0 °F - 37.0 °F 66% 29.98 in 10.0 mi East 3.5 mph - N/A   Clear